Weather History for CYHM - October, 2011

Change the Weather History Date:

Monday, October 3, 2011

  Actual Average Record
Temperature  
Mean Temperature 50 °F -  
Max Temperature 55 °F 56 °F 77 °F (2005)
Min Temperature 44 °F 39 °F 32 °F (2003)
Degree Days  
Heating Degree Days 16    
Moisture  
Dew Point 51 °F    
Average Humidity 97    
Maximum Humidity 100    
Minimum Humidity 88    
Precipitation  
Precipitation 0.08 in 0.09 in - ()
Sea Level Pressure  
Sea Level Pressure 30.05 in    
Wind  
Wind Speed 7 mph ()    
Max Wind Speed 12 mph    
Max Gust Speed 17 mph    
Visibility 7.3 miles    
Events Rain    
Averages and records for this station are not official NWS values.
T = Trace of Precipitation, MM = Missing Value Source: Averaged Metar Reports

Daily Weather History Graph

Daily Weather History Graph

Search for Another Location

Airport or City:

Trip Planner

Search our weather history database for the weather conditions in past years. The results will help you decide how hot, cold, wet, or windy it might be!

Date:

Astronomy

Oct. 03, 2011 Rise Set
Actual Time 7:19 AM EDT 6:57 PM EDT
Civil Twilight 6:50 AM EDT 7:26 PM EDT
Nautical Twilight 6:17 AM EDT 7:59 PM EDT
Astronomical Twilight 5:44 AM EDT 8:32 PM EDT
Moon 2:24 PM EDT (10/3) 11:50 PM EDT (10/3)
Length of Visible Light 12h 35m
Length of Day
11h 38m
Waxing Crescent, 45% of the Moon is Illuminated
Oct 3
Waxing Crescent
Oct 3
First Quarter
Oct 11
Full
Oct 19
Last Quarter
Oct 26
New

Hourly Weather History & Observations

Time (EDT) Temp. Windchill Dew Point Humidity Pressure Visibility Wind Dir Wind Speed Gust Speed Precip Events Conditions
12:00 AM 46.4 °F 43.5 °F 46.4 °F 100% 30.01 in 10.0 mi NW 5.8 mph - N/A   Overcast
12:33 AM - - - N/A% - 7.0 mi NNW 8.1 mph - N/A   Overcast
1:00 AM 46.4 °F 41.5 °F 46.4 °F 100% 30.00 in 5.0 mi NNW 10.4 mph - N/A Rain Light Rain Showers
2:00 AM 48 °F - 47 °F 96% 29.99 in 10 mi NNW 9.2 mph - - Rain Light Rain Showers
3:00 AM 48.2 °F - 48.2 °F 100% 29.99 in 2.0 mi North 3.5 mph - N/A Rain Light Rain Showers
3:25 AM - - - N/A% - 5.0 mi NW 3.5 mph - N/A Rain Light Rain Showers
4:00 AM 48.2 °F - 48.2 °F 100% 29.99 in 4.0 mi North 5.8 mph - N/A Rain Light Rain Showers
5:00 AM 50.0 °F - 50.0 °F 100% 29.97 in 5.0 mi NNE 10.4 mph - N/A Rain Light Rain Showers
6:00 AM 50.0 °F - 50.0 °F 100% 29.98 in 6.0 mi North 9.2 mph - N/A Rain Light Rain Showers
6:43 AM - - - N/A% - 6.0 mi North 10.4 mph - N/A   Overcast
7:00 AM 50.0 °F - 50.0 °F 100% 30.00 in 8.0 mi North 10.4 mph - N/A   Overcast
8:00 AM 50 °F - 49 °F 97% 30.02 in 7 mi North 10.4 mph - -   Partly Cloudy
8:12 AM - - - N/A% - 6.0 mi NNE 10.4 mph - N/A   Light Drizzle
9:00 AM 51.8 °F - 50.0 °F 94% 30.04 in 10.0 mi NNE 11.5 mph 17.3 mph N/A   Overcast
9:38 AM - - - N/A% - 6.0 mi NNE 8.1 mph - N/A   Light Drizzle
10:00 AM 51.8 °F - 51.8 °F 100% 30.04 in 6.0 mi ENE 11.5 mph 17.3 mph N/A   Light Drizzle
10:52 AM - - - N/A% - 4.0 mi NNE 9.2 mph - N/A Rain Light Rain Showers
11:49 AM - - - N/A% - 5.0 mi NNE 10.4 mph - N/A   Light Drizzle
12:00 PM 53.6 °F - 51.8 °F 94% 30.07 in 3.0 mi NNE 9.2 mph - N/A   Light Drizzle
12:52 PM - - - N/A% - 3.0 mi NNE 8.1 mph - N/A Rain Light Rain Showers
1:00 PM 53.6 °F - 51.8 °F 94% 30.07 in 3.0 mi NNE 9.2 mph - N/A Rain Light Rain Showers
2:00 PM 53 °F - 52 °F 97% 30.07 in 5 mi NNE 9.2 mph - - Rain Light Rain Showers
2:00 PM 53.6 °F - 51.8 °F 94% 30.07 in 5.0 mi NNE 9.2 mph - N/A Rain Light Rain Showers
2:45 PM - - - N/A% - 8.0 mi NNE 9.2 mph - N/A   Light Drizzle
3:00 PM 53.6 °F - 53.6 °F 100% 30.07 in 8.0 mi NNE 9.2 mph - N/A   Light Drizzle
5:00 PM 55.4 °F - 51.8 °F 88% 30.10 in 12.0 mi NNE 5.8 mph - N/A   Light Drizzle
5:46 PM - - - N/A% - 12.0 mi NNW 6.9 mph - N/A   Overcast
6:00 PM 55.4 °F - 51.8 °F 88% 30.11 in 12.0 mi NNW 6.9 mph - N/A   Overcast
7:00 PM 53.6 °F - 51.8 °F 94% 30.12 in 12.0 mi NNW 8.1 mph - N/A   Overcast
8:00 PM 53.6 °F - 53.6 °F 100% 30.12 in 12.0 mi NNW 8.1 mph - N/A   Overcast
9:00 PM 53.6 °F - 53.6 °F 100% 30.13 in 15.0 mi NW 4.6 mph - N/A   Overcast
10:00 PM 53.6 °F - 53.6 °F 100% 30.13 in 12.0 mi WNW 4.6 mph - N/A Rain Light Rain Showers
11:00 PM 53.6 °F - 53.6 °F 100% 30.13 in 6.0 mi NW 5.8 mph - N/A Rain Light Rain Showers